This is the latest recevied weather packets stored in our database for station/object IK8SUT-10. If no packets are shown the sender has not sent any weather packets the latest 10 day(s).
| Time | Temp. | Humidity | Pressure | Rain* | Wind** | Luminosity | Snow |
|---|---|---|---|---|---|---|---|
| 1787849901 | 32.78° C | 58% | 1020.3 hPa | - | - | - | - |
| 1787849000 | 33.33° C | 59% | 1020.2 hPa | - | - | - | - |
| 1787848099 | 33.33° C | 60% | 1020.1 hPa | - | - | - | - |
| 1787847198 | 32.78° C | 60% | 1020.2 hPa | - | - | - | - |
| 1787846298 | 32.78° C | 56% | 1020 hPa | - | - | - | - |
| 1787845397 | 33.33° C | 52% | 1019.9 hPa | - | - | - | - |
| 1787844496 | 33.33° C | 52% | 1019.9 hPa | - | - | - | - |
| 1787843595 | 33.33° C | 53% | 1020.1 hPa | - | - | - | - |
| 1787842694 | 33.33° C | 53% | 1019.9 hPa | - | - | - | - |
| 1787841794 | 33.89° C | 50% | 1020 hPa | - | - | - | - |
| 1787840913 | 33.33° C | 50% | 1020.1 hPa | - | - | - | - |
| 1787840012 | 33.33° C | 48% | 1020.1 hPa | - | - | - | - |
| 1787839111 | 32.78° C | 49% | 1019.9 hPa | - | - | - | - |
| 1787838210 | 32.78° C | 49% | 1019.9 hPa | - | - | - | - |
| 1787837309 | 32.78° C | 48% | 1019.9 hPa | - | - | - | - |
| 1787836409 | 32.78° C | 49% | 1019.9 hPa | - | - | - | - |
| 1787835508 | 32.78° C | 48% | 1019.9 hPa | - | - | - | - |
| 1787834607 | 32.78° C | 46% | 1020 hPa | - | - | - | - |
| 1787833706 | 32.78° C | 47% | 1019.9 hPa | - | - | - | - |
| 1787832805 | 32.78° C | 48% | 1019.9 hPa | - | - | - | - |
| 1787831905 | 32.78° C | 45% | 1019.8 hPa | - | - | - | - |
| 1787831004 | 32.78° C | 44% | 1019.8 hPa | - | - | - | - |
| 1787830103 | 32.78° C | 44% | 1019.6 hPa | - | - | - | - |
| 1787829202 | 32.78° C | 46% | 1019.6 hPa | - | - | - | - |
| 1787828301 | 32.78° C | 48% | 1019.6 hPa | - | - | - | - |
* Rain since midnight (hover to see other rain measurements)
** Current wind speed in m/s (hover to see current wind gust speed)